| time (UTC) | temp F | wind direction | speed MPH | gust MPH | rain 1hr in | rain 24hr in | rain mn in | humidity % | barometer mb |
| 20260902180929 | 82 | 104 | 7.0 | 6.0 | 0.00 | 0.00 | 0.00 | 1018.7 | |
| 20260902175931 | 83 | 167 | 6.0 | 9.0 | 0.00 | 0.00 | 0.00 | 1018.7 | |
| 20260902174924 | 83 | 121 | 8.0 | 6.0 | 0.00 | 0.00 | 0.00 | 1018.6 | |
| 20260902173927 | 84 | 115 | 7.0 | 7.0 | 0.00 | 0.00 | 0.00 | 1018.6 | |
| 20260902172923 | 85 | 146 | 7.0 | 6.0 | 0.00 | 0.00 | 0.00 | 1018.5 | |
| 20260902171925 | 85 | 172 | 9.0 | 9.0 | 0.00 | 0.00 | 0.00 | 1018.5 | |
| 20260902170928 | 85 | 124 | 9.0 | 7.0 | 0.00 | 0.00 | 0.00 | 1018.3 | |
| 20260902165927 | 86 | 121 | 7.0 | 7.0 | 0.00 | 0.00 | 0.00 | 1018.3 | |
| 20260902164930 | 87 | 150 | 7.0 | 5.0 | 0.00 | 0.00 | 0.00 | 1018.3 | |
| 20260902163933 | 88 | 139 | 7.0 | 7.0 | 0.00 | 0.00 | 0.00 | 1018.2 | |
| 20260902162934 | 88 | 152 | 7.0 | 6.0 | 0.00 | 0.00 | 0.00 | 1018.3 | |
| 20260902161931 | 88 | 143 | 7.0 | 6.0 | 0.00 | 0.00 | 0.00 | 1018.3 | |
| 20260902160933 | 88 | 127 | 9.0 | 10.0 | 0.00 | 0.00 | 0.00 | 1018.2 | |
| 20260902155936 | 89 | 197 | 8.0 | 7.0 | 0.00 | 0.00 | 0.00 | 1018.4 | |
| 20260902154938 | 89 | 152 | 9.0 | 12.0 | 0.00 | 0.00 | 0.00 | 1018.3 | |
| 20260902153941 | 89 | 136 | 12.0 | 12.0 | 0.00 | 0.00 | 0.00 | 1018.2 | |
| 20260902152943 | 90 | 186 | 8.0 | 11.0 | 0.00 | 0.00 | 0.00 | 1018.3 | |
| 20260902151946 | 89 | 129 | 8.0 | 4.0 | 0.00 | 0.00 | 0.00 | 1018.3 | |
| 20260902150941 | 89 | 97 | 6.0 | 7.0 | 0.00 | 0.00 | 0.00 | 1018.4 | |
| 20260902145944 | 89 | 163 | 10.0 | 6.0 | 0.00 | 0.00 | 0.00 | 1018.5 | |
| 20260902144947 | 90 | 222 | 9.0 | 7.0 | 0.00 | 0.00 | 0.00 | 1018.5 | |
| 20260902143949 | 90 | 121 | 9.0 | 10.0 | 0.00 | 0.00 | 0.00 | 1018.6 | |
| 20260902142952 | 89 | 193 | 9.0 | 8.0 | 0.00 | 0.00 | 0.00 | 1018.8 | |
| 20260902141942 | 90 | 165 | 9.0 | 8.0 | 0.00 | 0.00 | 0.00 | 1018.8 | |
| 20260902140945 | 90 | 120 | 7.0 | 9.0 | 0.00 | 0.00 | 0.00 | 1019.0 | |
| 20260902135936 | 90 | 115 | 8.0 | 7.0 | 0.00 | 0.00 | 0.00 | 1019.0 | |
| 20260902134936 | 89 | 141 | 10.0 | 5.0 | 0.00 | 0.00 | 0.00 | 1019.1 | |
| 20260902133939 | 90 | 170 | 7.0 | 9.0 | 0.00 | 0.00 | 0.00 | 1019.1 | |
| 20260902132941 | 90 | 148 | 8.0 | 4.0 | 0.00 | 0.00 | 0.00 | 1019.4 | |
| 20260902131944 | 90 | 143 | 8.0 | 8.0 | 0.00 | 0.00 | 0.00 | 1019.4 | |
| 20260902130947 | 90 | 146 | 11.0 | 15.0 | 0.00 | 0.00 | 0.00 | 1019.4 | |
| 20260902125949 | 91 | 117 | 8.0 | 7.0 | 0.00 | 0.00 | 0.00 | 1019.4 | |
| 20260902124946 | 91 | 169 | 9.0 | 8.0 | 0.00 | 0.00 | 0.00 | 1019.3 | |
| 20260902123946 | 92 | 174 | 7.0 | 10.0 | 0.00 | 0.00 | 0.00 | 1019.3 | |
| 20260902122949 | 91 | 131 | 7.0 | 8.0 | 0.00 | 0.00 | 0.00 | 1019.3 | |
| 20260902121951 | 90 | 118 | 8.0 | 6.0 | 0.00 | 0.00 | 0.00 | 1019.3 | |
| 20260902120948 | 92 | 131 | 7.0 | 7.0 | 0.00 | 0.00 | 0.00 | 1019.2 | |
| 20260902115946 | 90 | 163 | 9.0 | 9.0 | 0.00 | 0.00 | 0.00 | 1019.3 | |
| 20260902114948 | 90 | 172 | 9.0 | 9.0 | 0.00 | 0.00 | 0.00 | 1019.2 | |
| 20260902113943 | 91 | 194 | 9.0 | 7.0 | 0.00 | 0.00 | 0.00 | 1019.2 | |
| 20260902112940 | 92 | 200 | 7.0 | 10.0 | 0.00 | 0.00 | 0.00 | 1019.1 | |
| 20260902111927 | 90 | 177 | 9.0 | 4.0 | 0.00 | 0.00 | 0.00 | 1019.2 | |
| 20260902110927 | 90 | 173 | 5.0 | 5.0 | 0.00 | 0.00 | 0.00 | 1019.2 | |
| 20260902105930 | 90 | 190 | 7.0 | 6.0 | 0.00 | 0.00 | 0.00 | 1019.3 | |
| 20260902104926 | 89 | 156 | 6.0 | 6.0 | 0.00 | 0.00 | 0.00 | 1019.4 | |
| 20260902103929 | 89 | 235 | 4.0 | 7.0 | 0.00 | 0.00 | 0.00 | 1019.4 | |
| 20260902102924 | 88 | 155 | 7.0 | 3.0 | 0.00 | 0.00 | 0.00 | 1019.5 | |
| 20260902101926 | 86 | 308 | 0.0 | 0.0 | 0.00 | 0.00 | 0.00 | 1019.6 | |
| 20260902100924 | 87 | 204 | 6.0 | 2.0 | 0.00 | 0.00 | 0.00 | 1019.6 | |
| 20260902095924 | 85 | 233 | 3.0 | 1.0 | 0.00 | 0.00 | 0.00 | 1019.6 | |
| 20260902094923 | 85 | 103 | 4.0 | 1.0 | 0.00 | 0.00 | 0.00 | 1019.7 | |
| 20260902093923 | 85 | 256 | 3.0 | 4.0 | 0.00 | 0.00 | 0.00 | 1019.6 | |
| 20260902092925 | 84 | 297 | 4.0 | 4.0 | 0.00 | 0.00 | 0.00 | 1019.6 | |
| 20260902091917 | 83 | 323 | 7.0 | 8.0 | 0.00 | 0.00 | 0.00 | 1019.5 | |
| 20260902090919 | 82 | 300 | 4.0 | 9.0 | 0.00 | 0.00 | 0.00 | 1019.6 | |
| 20260902085922 | 81 | 326 | 4.0 | 7.0 | 0.00 | 0.00 | 0.00 | 1019.7 | |
| 20260902084922 | 81 | 316 | 5.0 | 6.0 | 0.00 | 0.00 | 0.00 | 1019.7 | |
| 20260902083923 | 80 | 312 | 4.0 | 3.0 | 0.00 | 0.00 | 0.00 | 1019.6 | |
| 20260902082924 | 79 | 319 | 7.0 | 7.0 | 0.00 | 0.00 | 0.00 | 1019.6 | |
| 20260902081927 | 78 | 338 | 4.0 | 4.0 | 0.00 | 0.00 | 0.00 | 1019.5 | |
| 20260902080923 | 77 | 281 | 5.0 | 4.0 | 0.00 | 0.00 | 0.00 | 1019.5 | |
| 20260902075924 | 76 | 336 | 8.0 | 5.0 | 0.00 | 0.00 | 0.00 | 1019.5 | |
| 20260902074922 | 76 | 328 | 8.0 | 5.0 | 0.00 | 0.00 | 0.00 | 1019.5 | |
| 20260902073922 | 75 | 323 | 6.0 | 6.0 | 0.00 | 0.00 | 0.00 | 1019.5 | |
| 20260902072925 | 75 | 352 | 4.0 | 6.0 | 0.00 | 0.00 | 0.00 | 1019.5 | |
| 20260902071927 | 74 | 21 | 5.0 | 7.0 | 0.00 | 0.00 | 0.00 | 1019.5 | |
| 20260902070930 | 74 | 21 | 5.0 | 9.0 | 0.00 | 0.00 | 0.00 | 1019.5 | |
| 20260902065925 | 73 | 300 | 4.0 | 4.0 | 0.00 | 0.00 | 0.00 | 1019.5 | |
| 20260902064922 | 71 | 336 | 5.0 | 6.0 | 0.00 | 0.00 | 0.00 | 1019.4 | |
| 20260902063924 | 70 | 314 | 6.0 | 8.0 | 0.00 | 0.00 | 0.00 | 1019.3 | |
| 20260902062926 | 70 | 329 | 5.0 | 6.0 | 0.00 | 0.00 | 0.00 | 1019.2 | |
| 20260902062032 | 69 | 290 | 4.0 | 5.0 | 0.00 | 0.00 | 0.00 | 1019.1 | |
| 20260902061927 | 69 | 290 | 4.0 | 5.0 | 0.00 | 0.00 | 0.00 | 1019.1 | |
| 20260902060930 | 69 | 307 | 4.0 | 5.0 | 0.00 | 0.00 | 0.00 | 1019.1 | |
| 20260902055930 | 70 | 311 | 3.0 | 5.0 | 0.00 | 0.00 | 0.00 | 1018.9 | |
| 20260902054925 | 70 | 311 | 2.0 | 3.0 | 0.00 | 0.00 | 0.00 | 1018.7 | |
| 20260902053922 | 70 | 323 | 4.0 | 4.0 | 0.00 | 0.00 | 0.00 | 1018.8 | |
| 20260902052925 | 70 | 335 | 5.0 | 5.0 | 0.00 | 0.00 | 0.00 | 1018.6 | |
| 20260902051925 | 70 | 277 | 4.0 | 1.0 | 0.00 | 0.00 | 0.00 | 1018.8 | |
| 20260902050927 | 70 | 325 | 2.0 | 3.0 | 0.00 | 0.00 | 0.00 | 1018.8 | |
| 20260902045930 | 70 | 319 | 4.0 | 3.0 | 0.00 | 0.00 | 0.00 | 1018.5 | |
| 20260902044933 | 70 | 319 | 2.0 | 1.0 | 0.00 | 0.00 | 0.00 | 1018.4 | |
| 20260902043927 | 70 | 170 | 1.0 | 1.0 | 0.00 | 0.00 | 0.00 | 1018.4 | |
| 20260902042930 | 70 | 311 | 4.0 | 5.0 | 0.00 | 0.00 | 0.00 | 1018.5 | |
| 20260902041932 | 70 | 266 | 3.0 | 0.0 | 0.00 | 0.00 | 0.00 | 1018.5 | |
| 20260902040935 | 70 | 277 | 3.0 | 1.0 | 0.00 | 0.00 | 0.00 | 1018.5 | |
| 20260902035936 | 70 | 342 | 4.0 | 3.0 | 0.00 | 0.00 | 0.00 | 1018.6 | |
| 20260902034937 | 70 | 302 | 6.0 | 5.0 | 0.00 | 0.00 | 0.00 | 1018.5 | |
| 20260902033940 | 70 | 345 | 2.0 | 0.0 | 0.00 | 0.00 | 0.00 | 1018.6 | |
| 20260902032934 | 71 | 72 | 0.0 | 0.0 | 0.00 | 0.00 | 0.00 | 1018.6 | |
| 20260902031937 | 71 | 322 | 3.0 | 2.0 | 0.00 | 0.00 | 0.00 | 1018.7 | |
| 20260902030940 | 70 | 295 | 4.0 | 7.0 | 0.00 | 0.00 | 0.00 | 1018.7 | |
| 20260902025937 | 71 | 59 | 2.0 | 1.0 | 0.00 | 0.00 | 0.00 | 1018.6 | |
| 20260902024940 | 71 | 84 | 1.0 | 0.0 | 0.00 | 0.00 | 0.00 | 1018.5 | |
| 20260902023943 | 70 | 120 | 2.0 | 1.0 | 0.00 | 0.00 | 0.00 | 1018.6 | |
| 20260902022944 | 71 | 114 | 2.0 | 3.0 | 0.00 | 0.00 | 0.00 | 1018.6 | |
| 20260902021933 | 71 | 329 | 3.0 | 2.0 | 0.00 | 0.00 | 0.00 | 1018.7 | |
| 20260902020935 | 71 | 326 | 5.0 | 4.0 | 0.00 | 0.00 | 0.00 | 1018.6 | |
| 20260902015938 | 71 | 260 | 0.0 | 0.0 | 0.00 | 0.00 | 0.00 | 1018.7 | |
| 20260902014940 | 71 | 353 | 3.0 | 5.0 | 0.00 | 0.00 | 0.00 | 1018.7 | |
| 20260902013943 | 71 | 329 | 3.0 | 3.0 | 0.00 | 0.00 | 0.00 | 1018.7 | |
| 20260902012946 | 72 | 297 | 0.0 | 0.0 | 0.00 | 0.00 | 0.00 | 1018.8 | |
| 20260902011946 | 72 | 333 | 0.0 | 0.0 | 0.00 | 0.00 | 0.00 | 1018.9 | |
| 20260902010942 | 72 | 301 | 3.0 | 3.0 | 0.00 | 0.00 | 0.00 | 1018.9 | |
| 20260902005944 | 73 | 274 | 0.0 | 0.0 | 0.00 | 0.00 | 0.00 | 1018.9 | |
| 20260902004937 | 72 | 274 | 0.0 | 0.0 | 0.00 | 0.00 | 0.00 | 1019.0 | |
| 20260902003940 | 73 | 158 | 0.0 | 0.0 | 0.00 | 0.00 | 0.00 | 1019.0 | |
| 20260902002942 | 73 | 158 | 0.0 | 0.0 | 0.00 | 0.00 | 0.00 | 1019.0 | |
| 20260902001934 | 73 | 158 | 0.0 | 0.0 | 0.00 | 0.00 | 0.00 | 1019.0 | |
| 20260902000937 | 73 | 158 | 0.0 | 0.0 | 0.00 | 0.00 | 0.00 | 1019.0 | |
| 20260901235933 | 73 | 158 | 0.0 | 0.0 | 0.00 | 0.00 | 0.00 | 1019.0 | |
| 20260901234934 | 73 | 158 | 0.0 | 0.0 | 0.00 | 0.00 | 0.00 | 1018.8 | |
| 20260901233936 | 73 | 158 | 0.0 | 0.0 | 0.00 | 0.00 | 0.00 | 1018.8 | |
| 20260901232939 | 73 | 91 | 1.0 | 2.0 | 0.00 | 0.00 | 0.00 | 1018.7 | |
| 20260901231941 | 74 | 120 | 1.0 | 1.0 | 0.00 | 0.00 | 0.00 | 1018.7 | |
| 20260901230944 | 75 | 219 | 0.0 | 0.0 | 0.00 | 0.00 | 0.00 | 1018.7 | |
| 20260901225947 | 75 | 219 | 0.0 | 0.0 | 0.00 | 0.00 | 0.00 | 1018.7 | |
| 20260901224943 | 74 | 219 | 0.0 | 0.0 | 0.00 | 0.00 | 0.00 | 1018.6 | |
| 20260901223946 | 75 | 330 | 0.0 | 0.0 | 0.00 | 0.00 | 0.00 | 1018.3 | |
| 20260901222944 | 75 | 330 | 0.0 | 0.0 | 0.00 | 0.00 | 0.00 | 1018.2 | |
| 20260901221947 | 75 | 330 | 0.0 | 0.0 | 0.00 | 0.00 | 0.00 | 1018.2 | |
| 20260901220950 | 76 | 330 | 0.0 | 0.0 | 0.00 | 0.00 | 0.00 | 1018.2 | |
| 20260901215952 | 76 | 328 | 0.0 | 0.0 | 0.00 | 0.00 | 0.00 | 1018.2 | |
| 20260901214955 | 76 | 328 | 0.0 | 0.0 | 0.00 | 0.00 | 0.00 | 1018.2 | |
| 20260901213948 | 76 | 328 | 0.0 | 0.0 | 0.00 | 0.00 | 0.00 | 1018.1 | |
| 20260901212951 | 76 | 201 | 0.0 | 0.0 | 0.00 | 0.00 | 0.00 | 1018.1 | |
| 20260901211953 | 76 | 242 | 0.0 | 0.0 | 0.00 | 0.00 | 0.00 | 1017.9 | |
| 20260901210951 | 76 | 242 | 0.0 | 0.0 | 0.00 | 0.00 | 0.00 | 1017.8 | |
| 20260901205954 | 76 | 242 | 0.0 | 0.0 | 0.00 | 0.00 | 0.00 | 1017.7 | |
| 20260901204956 | 77 | 242 | 0.0 | 0.0 | 0.00 | 0.00 | 0.00 | 1017.6 | |
| 20260901203959 | 77 | 242 | 0.0 | 0.0 | 0.00 | 0.00 | 0.00 | 1017.6 | |
| 20260901202955 | 77 | 242 | 0.0 | 0.0 | 0.00 | 0.00 | 0.00 | 1017.5 | |
| 20260901201956 | 77 | 242 | 0.0 | 0.0 | 0.00 | 0.00 | 0.00 | 1017.4 | |
| 20260901200956 | 78 | 207 | 0.0 | 0.0 | 0.00 | 0.00 | 0.00 | 1017.2 | |
| 20260901195959 | 78 | 207 | 0.0 | 0.0 | 0.00 | 0.00 | 0.00 | 1017.3 | |
| 20260901195001 | 78 | 207 | 0.0 | 0.0 | 0.00 | 0.00 | 0.00 | 1017.0 | |
| 20260901194004 | 79 | 226 | 0.0 | 0.0 | 0.00 | 0.00 | 0.00 | 1017.0 | |
| 20260901193005 | 78 | 191 | 0.0 | 0.0 | 0.00 | 0.00 | 0.00 | 1016.9 | |
| 20260901192000 | 78 | 228 | 2.0 | 1.0 | 0.00 | 0.00 | 0.00 | 1016.9 | |
| 20260901191040 | 79 | 219 | 3.0 | 2.0 | 0.00 | 0.00 | 0.00 | 1016.8 | |
| 20260901191003 | 79 | 219 | 3.0 | 2.0 | 0.00 | 0.00 | 0.00 | 1016.8 | |
| 20260901190005 | 79 | 225 | 5.0 | 4.0 | 0.00 | 0.00 | 0.00 | 1016.6 | |
| 20260901185008 | 79 | 191 | 3.0 | 4.0 | 0.00 | 0.00 | 0.00 | 1016.4 | |
| 20260901184009 | 80 | 211 | 4.0 | 4.0 | 0.00 | 0.00 | 0.00 | 1016.3 | |
| 20260901183012 | 80 | 238 | 3.0 | 0.0 | 0.00 | 0.00 | 0.00 | 1016.1 | |
| 20260901182014 | 80 | 298 | 1.0 | 0.0 | 0.00 | 0.00 | 0.00 | 1016.1 |